Time,TemperatureF,DewpointF,PressureIn,WindDirection,WindDirectionDegrees,WindSpeedMPH,WindSpeedGustMPH,Humidity,HourlyPrecipIn,Conditions,Clouds,dailyrainin,SoftwareType,DateUTC
2013-07-10 00:01:00,75.0,49.0,-100.00,East,95,3.0,7.0,39,-99.99,,,-99.99,,2013-07-10 07:01:00,
2013-07-10 01:11:00,77.0,50.0,-100.00,South,175,5.0,7.0,38,-99.99,,,-99.99,,2013-07-10 08:11:00,
2013-07-10 02:02:00,77.0,52.0,-100.00,South,170,7.0,12.0,41,-99.99,,,-99.99,,2013-07-10 09:02:00,
2013-07-10 03:01:00,75.0,51.0,-100.00,North,5,3.0,7.0,42,-99.99,,,-99.99,,2013-07-10 10:01:00,
2013-07-10 03:13:00,75.0,51.0,-100.00,North,5,3.0,7.0,42,-99.99,,,-99.99,,2013-07-10 10:13:00,
2013-07-10 05:11:00,69.0,47.0,-100.00,NW,320,1.0,3.0,45,-99.99,,,-99.99,,2013-07-10 12:11:00,
2013-07-10 06:10:00,70.0,51.0,-100.00,South,170,7.0,10.0,50,-99.99,,,-99.99,,2013-07-10 13:10:00,
2013-07-10 08:10:00,75.0,51.0,-100.00,SSE,160,13.0,17.0,42,-99.99,,,-99.99,,2013-07-10 15:10:00,
2013-07-10 09:01:00,75.0,51.0,-100.00,SSE,160,13.0,17.0,42,-99.99,,,-99.99,,2013-07-10 16:01:00,
2013-07-10 10:10:00,83.0,47.0,-100.00,SSE,150,12.0,15.0,28,-99.99,,,-99.99,,2013-07-10 17:10:00,
2013-07-10 11:02:00,83.0,47.0,-100.00,SSE,150,12.0,15.0,28,-99.99,,,-99.99,,2013-07-10 18:02:00,
2013-07-10 12:10:00,88.0,46.0,-100.00,NE,45,6.0,12.0,23,-99.99,,,-99.99,,2013-07-10 19:10:00,
2013-07-10 14:01:00,92.0,49.0,-100.00,NE,45,5.0,13.0,23,-99.99,,,-99.99,,2013-07-10 21:01:00,
2013-07-10 14:10:00,93.0,45.0,-100.00,South,170,5.0,14.0,19,-99.99,,,-99.99,,2013-07-10 21:10:00,
2013-07-10 14:11:00,92.0,49.0,-100.00,NE,45,5.0,13.0,23,-99.99,,,-99.99,,2013-07-10 21:11:00,
2013-07-10 16:01:00,95.0,38.0,-100.00,East,85,5.0,20.0,13,-99.99,,,-99.99,,2013-07-10 23:01:00,
2013-07-10 16:11:00,95.0,38.0,-100.00,East,85,5.0,20.0,13,-99.99,,,-99.99,,2013-07-10 23:11:00,
2013-07-10 18:01:00,93.0,41.0,-100.00,ESE,105,13.0,21.0,16,-99.99,,,-99.99,,2013-07-11 01:01:00,
2013-07-10 18:11:00,93.0,41.0,-100.00,ESE,105,13.0,21.0,16,-99.99,,,-99.99,,2013-07-11 01:11:00,
2013-07-10 20:11:00,88.0,31.0,-100.00,East,95,13.0,20.0,12,-99.99,,,-99.99,,2013-07-11 03:11:00,
2013-07-10 22:12:00,78.0,41.0,-100.00,North,360,8.0,17.0,26,-99.99,,,-99.99,,2013-07-11 05:12:00,
2013-07-10 23:10:00,73.0,37.0,-100.00,North,5,8.0,14.0,26,-99.99,,,-99.99,,2013-07-11 06:10:00,